This is the latest recevied weather packets stored in our database for station/object VE6HFD-WX. If no packets are shown the sender has not sent any weather packets the latest 10 day(s).
| Time | Temp. | Humidity | Pressure | Rain* | Wind** | Luminosity | Snow |
|---|---|---|---|---|---|---|---|
| 1777752007 | 16.67° C | 33% | 1015.2 hPa | 0 mm | - | - | - |
| 1777751707 | 17.22° C | 32% | 1015.4 hPa | 0 mm | - | - | - |
| 1777751377 | 16.67° C | 32% | 1015.4 hPa | 0 mm | - | - | - |
| 1777751077 | 16.11° C | 33% | 1015.6 hPa | 0 mm | - | - | - |
| 1777750747 | 16.11° C | 31% | 1015.6 hPa | 0 mm | - | - | - |
| 1777750447 | 16.11° C | 32% | 1015.7 hPa | 0 mm | - | - | - |
| 1777750147 | 16.11° C | 33% | 1015.8 hPa | 0 mm | - | - | - |
| 1777749817 | 16.67° C | 33% | 1015.8 hPa | 0 mm | - | - | - |
| 1777749517 | 16.11° C | 33% | 1015.9 hPa | 0 mm | - | - | - |
| 1777749187 | 16.11° C | 33% | 1016 hPa | 0 mm | - | - | - |
| 1777748857 | 16.11° C | 33% | 1015.9 hPa | 0 mm | - | - | - |
| 1777748557 | 16.11° C | 32% | 1016 hPa | 0 mm | - | - | - |
| 1777748227 | 16.67° C | 31% | 1016.1 hPa | 0 mm | - | - | - |
| 1777747927 | 16.11° C | 31% | 1016.1 hPa | 0 mm | - | - | - |
| 1777747627 | 16.11° C | 31% | 1016.1 hPa | 0 mm | - | - | - |
| 1777747297 | 16.11° C | 32% | 1016.2 hPa | 0 mm | - | - | - |
| 1777746997 | 16.11° C | 32% | 1016.3 hPa | 0 mm | - | - | - |
| 1777746667 | 15.56° C | 31% | 1016.4 hPa | 0 mm | - | - | - |
| 1777746367 | 16.11° C | 31% | 1016.4 hPa | 0 mm | - | - | - |
| 1777746067 | 16.11° C | 31% | 1016.4 hPa | 0 mm | - | - | - |
| 1777745737 | 15.56° C | 31% | 1016.5 hPa | 0 mm | - | - | - |
| 1777745407 | 16.11° C | 33% | 1016.5 hPa | 0 mm | - | - | - |
| 1777745107 | 15.56° C | 31% | 1016.5 hPa | 0 mm | - | - | - |
| 1777744777 | 15.56° C | 33% | 1016.6 hPa | 0 mm | - | - | - |
| 1777744447 | 16.11° C | 33% | 1016.6 hPa | 0 mm | - | - | - |
* Rain latest hour (hover to see other rain measurements)
** Current wind speed in m/s (hover to see current wind gust speed)